Home > Weather > Gdańsk > Past weeks

Flag for Poland Past Weather in Gdańsk, Poland — Yesterday and Last 2 Weeks

Now
79 °F

Sunny.


Feels Like: 79 °F
Forecast: 64 / 75 °F
Wind: 2 mph from North

Location: Gdansk-Rebiechowo

Current Time: Jul 26, 2016 at 12:19:59 PM

Latest Report: Jul 26, 2016 at 12:00 PM


Visibility: 10 mi

Pressure: 30.04 "Hg

Humidity: 42%

Dew Point: 54 °F

Location of GdańskLocation

Past Weather in Gdańsk — Graph

°F

Gdańsk Temperature Yesterday

Maximum temperature yesterday: 75 °F (at 12:30 PM)
Minimum temperature yesterday: 59 °F (at 1:00 AM)
Average temperature yesterday: 67 °F

High & Low Weather Summary for the Past Weeks

 TemperatureHumidityPressure
High82 °F (Jul 11, 3:00 PM)100% (Jul 13, 10:30 PM)30.18 "Hg (Jul 13, 10:30 PM)
Low50 °F (Jul 21, 5:00 AM)42% (Jul 26, 11:00 AM)29.56 "Hg (Jul 14, 10:00 PM)
Average63 °F81%29.99 "Hg
* Reported Jul 11 11:00 AM — Jul 26 11:00 AM, Gdańsk, Weather by CustomWeather, © 2016

Note: Actual official high and low records may vary slightly from our data, if they occured in-between our weather recording intervals... More about our weather records

Advertising

Gdańsk Weather History for the Previous 24 Hours

Scroll right to see more
 ConditionsComfort  
Time TempWeatherWind HumidityBarometerVisibility
11:00 AM
Tue, Jul 26
77 °FPassing clouds.5 mph42%30.04 "HgN/A
10:30 AM75 °FPassing clouds.7 mph47%30.04 "HgN/A
10:00 AM75 °FPassing clouds.6 mph50%30.04 "HgN/A
9:30 AM73 °FPassing clouds.6 mph61%30.04 "HgN/A
9:00 AM72 °FPassing clouds.5 mph69%30.04 "HgN/A
8:30 AM70 °FPassing clouds.3 mph78%30.04 "HgN/A
8:00 AM68 °FSunny.2 mph83%30.04 "Hg10 mi
7:30 AM66 °FPassing clouds.3 mph88%30.04 "HgN/A
7:00 AM66 °FSunny.1 mph88%30.04 "Hg10 mi
6:30 AM63 °FClear.2 mph94%30.04 "Hg5 mi
6:00 AM59 °FClear.5 mph100%30.04 "Hg5 mi
5:30 AM57 °FClear.5 mph100%30.04 "Hg4 mi
5:00 AM59 °FClear.3 mph94%30.04 "Hg4 mi
4:30 AM59 °FClear.2 mph100%30.04 "Hg4 mi
4:00 AM59 °FClear.1 mph100%30.04 "Hg5 mi
3:30 AM59 °FClear.3 mph100%30.04 "Hg4 mi
3:00 AM61 °FLight fog.2 mph100%30.04 "Hg4 mi
2:30 AM61 °FCool.2 mph100%30.04 "Hg4 mi
2:00 AM61 °FCool.2 mph100%30.04 "Hg4 mi
1:30 AM61 °FCool.2 mph100%30.04 "Hg5 mi
1:00 AM63 °FMild.2 mph94%30.04 "Hg4 mi
12:30 AM63 °FMild.1 mph100%30.04 "Hg5 mi
12:00 AM63 °FClear.2 mph94%30.04 "Hg4 mi
11:30 PM
Mon, Jul 25
63 °FMild.1 mph100%30.04 "Hg5 mi
11:00 PM64 °FClear.1 mph94%30.04 "Hg5 mi
10:30 PM64 °FPassing clouds.3 mph94%30.04 "HgN/A
10:00 PM66 °FClear.2 mph94%30.04 "Hg10 mi
9:30 PM66 °FPassing clouds.3 mph88%30.07 "HgN/A
9:00 PM68 °FSunny.3 mph88%30.07 "Hg10 mi
8:30 PM68 °FSunny.3 mph88%30.04 "Hg10 mi
8:00 PM70 °FPassing clouds.5 mph83%30.04 "HgN/A
7:30 PM72 °FPassing clouds.6 mph78%30.04 "HgN/A
7:00 PM72 °FPassing clouds.8 mph73%30.04 "HgN/A
6:30 PM72 °FSunny.10 mph73%30.04 "Hg10 mi
6:00 PM73 °FPassing clouds.9 mph74%30.04 "HgN/A
5:30 PM73 °FPassing clouds.10 mph69%30.04 "HgN/A
5:00 PM73 °FSunny.9 mph74%30.04 "Hg10 mi
4:30 PM73 °FPassing clouds.10 mph74%30.04 "HgN/A
4:00 PM73 °FPassing clouds.10 mph74%30.04 "HgN/A
3:30 PM73 °FPassing clouds.9 mph74%30.04 "HgN/A
3:00 PM73 °FPassing clouds.9 mph74%30.04 "HgN/A
2:30 PM75 °FPassing clouds.3 mph69%30.04 "HgN/A
2:00 PM73 °FPassing clouds.7 mph78%30.07 "HgN/A
1:30 PM73 °FPassing clouds.6 mph74%30.07 "HgN/A
1:00 PM73 °FPassing clouds.7 mph69%30.07 "HgN/A
12:30 PM75 °FScattered clouds.3 mph61%30.07 "HgN/A
12:00 PM72 °FScattered clouds.5 mph78%30.07 "HgN/A
Weather by CustomWeather, © 2016

See weather overviewHow to use our weather pages